"datetime","# probes","# resolvers","can_ipv6","can_ipv6_prbs","can_tcp","can_tcp_prbs","can_tcp6","can_tcp6_prbs","does_ecs","does_ecs_prbs","does_flagday","does_flagday_prbs","does_rov4","does_rov4_prbs","does_rov6","does_rov6_prbs","does_qnamemin","doesnt_qnamemin","does_qnamemin_prbs","doesnt_qnamemin_prbs","does_nxdomain","doesnt_nxdomain","does_nxdomain_prbs","doesnt_nxdomain_prbs","has_ta_19036","hasnt_ta_19036","has_ta_19036_prbs","hasnt_ta_19036_prbs","has_ta_20326","hasnt_ta_20326","has_ta_20326_prbs","hasnt_ta_20326_prbs","can_rsamd5","cannot_rsamd5","broken_rsamd5","can_rsamd5_prbs","cannot_rsamd5_prbs","broken_rsamd5_prbs","can_dsa","cannot_dsa","broken_dsa","can_dsa_prbs","cannot_dsa_prbs","broken_dsa_prbs","can_rsasha1","cannot_rsasha1","broken_rsasha1","can_rsasha1_prbs","cannot_rsasha1_prbs","broken_rsasha1_prbs","can_dsansec3","cannot_dsansec3","broken_dsansec3","can_dsansec3_prbs","cannot_dsansec3_prbs","broken_dsansec3_prbs","can_rsansec3","cannot_rsansec3","broken_rsansec3","can_rsansec3_prbs","cannot_rsansec3_prbs","broken_rsansec3_prbs","can_rsasha256","cannot_rsasha256","broken_rsasha256","can_rsasha256_prbs","cannot_rsasha256_prbs","broken_rsasha256_prbs","can_rsasha512","cannot_rsasha512","broken_rsasha512","can_rsasha512_prbs","cannot_rsasha512_prbs","broken_rsasha512_prbs","can_eccgost","cannot_eccgost","broken_eccgost","can_eccgost_prbs","cannot_eccgost_prbs","broken_eccgost_prbs","can_ecdsa256","cannot_ecdsa256","broken_ecdsa256","can_ecdsa256_prbs","cannot_ecdsa256_prbs","broken_ecdsa256_prbs","can_ecdsa384","cannot_ecdsa384","broken_ecdsa384","can_ecdsa384_prbs","cannot_ecdsa384_prbs","broken_ecdsa384_prbs","can_ed25519","cannot_ed25519","broken_ed25519","can_ed25519_prbs","cannot_ed25519_prbs","broken_ed25519_prbs","can_ed448","cannot_ed448","broken_ed448","can_ed448_prbs","cannot_ed448_prbs","broken_ed448_prbs","can_gost","cannot_gost","broken_gost","can_gost_prbs","cannot_gost_prbs","broken_gost_prbs","can_sha384","cannot_sha384","broken_sha384","can_sha384_prbs","cannot_sha384_prbs","broken_sha384_prbs","is_internal","is_forwarding","is_external","is_internal_prbs","is_forwarding_prbs","is_external_prbs"
2017-06-20T23:59:57Z,41,70,42,23,70,41,40,22,27,15,0,0,0,0,0,0,0,70,0,41,1,69,1,40,0,0,0,0,0,0,0,0,35,9,21,22,8,12,38,29,0,24,16,1,59,6,0,35,5,1,37,30,0,23,16,1,59,6,0,35,5,1,59,6,0,35,5,1,59,6,0,35,5,1,4,66,0,2,40,1,59,6,0,35,5,1,59,6,0,35,5,1,0,70,0,0,41,1,0,70,0,0,41,1,25,43,0,13,31,1,58,6,0,34,5,1,35,10,25,25,9,14
2017-06-21T23:59:56Z,41,70,42,23,70,41,40,22,27,14,0,0,0,0,0,0,0,70,0,41,1,69,1,40,0,0,0,0,0,0,0,0,35,9,21,22,8,12,37,30,0,23,16,1,59,6,0,35,5,1,37,30,0,23,16,1,59,6,0,35,5,1,59,6,0,35,5,1,59,6,0,35,5,1,4,66,0,2,40,1,59,6,0,35,5,1,59,6,0,35,5,1,0,70,0,0,41,1,0,70,0,0,41,1,25,43,0,13,31,1,58,6,0,34,5,1,35,10,25,25,9,14
2017-06-22T23:59:58Z,41,70,42,23,70,41,39,21,26,14,0,0,0,0,0,0,0,70,0,41,1,69,1,40,0,0,0,0,0,0,0,0,35,9,21,22,8,12,37,30,0,23,16,1,59,6,0,35,5,1,37,30,0,23,16,1,59,6,0,35,5,1,59,6,0,35,5,1,59,6,0,35,5,1,4,66,0,2,40,1,59,6,0,35,5,1,59,6,0,35,5,1,0,70,0,0,41,1,0,70,0,0,41,1,25,43,0,13,31,1,59,6,0,35,5,1,34,11,25,24,10,14
2017-06-23T23:59:57Z,41,70,42,23,70,41,39,21,28,15,0,0,0,0,0,0,0,70,0,41,1,69,1,40,0,0,0,0,0,0,0,0,35,9,21,22,8,12,37,30,0,23,16,1,59,6,0,35,5,1,37,30,0,23,16,1,59,6,0,35,5,1,59,6,0,35,5,1,59,6,0,35,5,1,4,66,0,2,40,1,59,6,0,35,5,1,59,6,0,35,5,1,0,70,0,0,41,1,0,70,0,0,41,1,25,43,0,13,31,1,59,6,0,35,5,1,35,10,25,25,9,14
2017-06-24T23:59:58Z,41,70,42,23,70,41,39,21,27,14,0,0,0,0,0,0,0,70,0,41,1,69,1,40,0,0,0,0,0,0,0,0,36,9,21,23,8,12,38,30,0,24,16,1,60,6,0,36,5,1,38,30,0,24,16,1,60,6,0,36,5,1,60,6,0,36,5,1,60,6,0,36,5,1,4,66,0,2,40,1,60,6,0,36,5,1,60,6,0,36,5,1,0,70,0,0,41,1,0,70,0,0,41,1,25,43,0,13,31,1,60,6,0,36,5,1,34,11,25,24,10,14
2017-06-25T23:59:57Z,41,70,42,23,70,41,40,22,27,14,0,0,0,0,0,0,0,70,0,41,1,69,1,40,0,0,0,0,0,0,0,0,37,9,21,24,8,12,39,30,0,25,16,1,61,6,0,37,5,1,39,30,0,25,16,1,61,6,0,37,5,1,61,6,0,37,5,1,61,6,0,37,5,1,4,66,0,2,40,1,61,6,0,37,5,1,61,6,0,37,5,1,0,70,0,0,41,1,0,70,0,0,41,1,25,43,0,13,31,1,61,6,0,37,5,1,34,11,25,24,10,14
2017-06-26T23:59:59Z,42,72,42,23,72,42,40,22,27,14,0,0,0,0,0,0,1,70,1,41,1,71,1,41,0,0,0,0,0,0,0,0,37,11,21,24,9,12,39,32,0,25,17,1,61,8,0,37,6,1,39,32,0,25,17,1,61,8,0,37,6,1,61,8,0,37,6,1,61,8,0,37,6,1,4,68,0,2,41,1,61,8,0,37,6,1,61,8,0,37,6,1,0,72,0,0,42,1,0,72,0,0,42,1,25,45,0,13,32,1,61,8,0,37,6,1,34,12,26,24,11,15
2017-06-27T23:59:59Z,41,71,40,22,71,41,38,21,24,13,0,0,0,0,0,0,1,69,1,40,1,70,1,40,0,0,0,0,0,0,0,0,38,11,19,24,9,11,40,30,0,25,16,1,60,8,0,36,6,1,40,30,0,25,16,1,60,8,0,36,6,1,60,8,0,36,6,1,60,8,0,36,6,1,4,67,0,2,40,1,60,8,0,36,6,1,60,8,0,36,6,1,0,71,0,0,41,1,0,71,0,0,41,1,23,46,0,12,32,1,60,8,0,36,6,1,36,10,25,25,9,14
2017-06-28T23:59:58Z,38,65,38,21,65,38,34,19,25,13,0,0,0,0,0,0,0,65,0,38,1,64,1,37,0,0,0,0,0,0,0,0,34,9,19,22,8,11,36,28,0,23,15,1,56,6,0,34,5,1,36,28,0,23,15,1,56,6,0,34,5,1,52,12,0,33,9,1,56,6,0,34,5,1,4,61,0,2,37,1,56,6,0,34,5,1,56,6,0,34,5,1,0,65,0,0,38,1,0,65,0,0,38,1,23,40,0,12,29,1,56,6,0,34,5,1,31,10,24,22,9,13
2017-06-29T23:59:57Z,38,65,38,21,65,38,36,20,25,13,0,0,0,0,0,0,0,65,0,38,1,64,1,37,0,0,0,0,0,0,0,0,34,9,19,22,8,11,36,28,0,23,15,1,56,6,0,34,5,1,36,28,0,23,15,1,56,6,0,34,5,1,53,11,0,33,9,1,56,6,0,34,5,1,4,61,0,2,37,1,56,6,0,34,5,1,56,6,0,34,5,1,0,65,0,0,38,1,0,65,0,0,38,1,23,40,0,12,29,1,56,6,0,34,5,1,32,9,24,23,8,13
2017-06-30T23:59:58Z,38,65,38,21,65,38,36,20,26,14,0,0,0,0,0,0,0,65,0,38,1,64,1,37,0,0,0,0,0,0,0,0,34,9,19,22,8,11,36,28,0,23,15,1,56,6,0,34,5,1,36,28,0,23,15,1,56,6,0,34,5,1,50,14,0,32,11,1,56,6,0,34,5,1,4,61,0,2,37,1,56,6,0,34,5,1,56,6,0,34,5,1,0,65,0,0,38,1,0,65,0,0,38,1,23,40,0,12,29,1,56,6,0,34,5,1,32,9,24,23,8,13
2017-07-01T23:59:56Z,37,64,38,21,64,37,37,20,25,13,0,0,0,0,0,0,0,64,0,37,1,63,1,36,0,0,0,0,0,0,0,0,33,9,19,21,8,11,35,28,0,22,15,1,55,6,0,33,5,1,35,28,0,22,15,1,55,6,0,33,5,1,48,15,0,30,11,1,55,6,0,33,5,1,4,60,0,2,36,1,55,6,0,33,5,1,55,6,0,33,5,1,0,64,0,0,37,1,0,64,0,0,37,1,23,39,0,12,28,1,55,6,0,33,5,1,31,9,24,22,8,13
2017-07-02T23:59:56Z,37,64,38,21,64,37,37,20,24,13,0,0,0,0,0,0,0,64,0,37,1,63,1,36,0,0,0,0,0,0,0,0,33,9,19,21,8,11,35,28,0,22,15,1,55,6,0,33,5,1,35,28,0,22,15,1,55,6,0,33,5,1,55,8,0,33,7,1,55,6,0,33,5,1,4,60,0,2,36,1,55,6,0,33,5,1,55,6,0,33,5,1,0,64,0,0,37,1,0,64,0,0,37,1,23,39,0,12,28,1,55,6,0,33,5,1,31,9,24,22,8,13
2017-07-03T23:59:58Z,38,66,40,22,66,38,38,21,25,13,0,0,0,0,0,0,0,66,0,38,1,65,1,37,0,0,0,0,0,0,0,0,35,9,19,22,8,11,37,28,0,23,15,1,57,6,0,34,5,1,37,28,0,23,15,1,57,6,0,34,5,1,50,15,0,31,10,1,56,7,0,34,6,1,4,62,0,2,37,1,57,6,0,34,5,1,57,6,0,34,5,1,0,66,0,0,38,1,0,66,0,0,38,1,23,41,0,12,29,1,57,6,0,34,5,1,32,10,24,22,9,13
2017-07-04T23:59:57Z,38,66,40,22,66,38,39,21,25,13,0,0,0,0,0,0,0,66,0,38,1,65,1,37,0,0,0,0,0,0,0,0,35,9,19,22,8,11,37,28,0,23,15,1,57,6,0,34,5,1,37,28,0,23,15,1,57,6,0,34,5,1,55,10,0,33,9,1,57,6,0,34,5,1,4,62,0,2,37,1,57,6,0,34,5,1,57,6,0,34,5,1,0,66,0,0,38,1,0,66,0,0,38,1,23,41,0,12,29,1,57,6,0,34,5,1,33,9,24,23,8,13
2017-07-05T23:59:59Z,38,66,40,22,66,38,38,21,25,14,0,0,0,0,0,0,0,66,0,38,1,65,1,37,0,0,0,0,0,0,0,0,35,9,19,22,8,11,37,28,0,23,15,1,57,6,0,34,5,1,37,28,0,23,15,1,57,6,0,34,5,1,52,13,0,33,11,1,57,6,0,34,5,1,4,62,0,2,37,1,57,6,0,34,5,1,57,6,0,34,5,1,0,66,0,0,38,1,0,66,0,0,38,1,23,41,0,12,29,1,57,6,0,34,5,1,33,9,24,23,8,13
2017-07-06T23:59:58Z,38,65,39,22,65,38,37,21,24,13,0,0,0,0,0,0,0,65,0,38,1,64,1,37,0,0,0,0,0,0,0,0,35,9,18,22,8,11,37,27,0,23,15,1,56,6,0,34,5,1,37,27,0,23,15,1,56,6,0,34,5,1,56,8,0,34,7,1,56,6,0,34,5,1,4,61,0,2,37,1,56,6,0,34,5,1,56,6,0,34,5,1,0,65,0,1,38,1,0,65,0,0,38,1,22,41,0,12,29,1,56,6,0,34,5,1,33,9,23,23,8,13
2017-07-07T23:59:59Z,38,66,40,22,66,38,36,20,24,13,0,0,0,0,0,0,0,66,0,38,1,65,1,37,0,0,0,0,0,0,0,0,35,9,19,22,8,11,37,28,0,23,15,1,57,6,0,34,5,1,37,28,0,23,15,1,57,6,0,34,5,1,56,8,1,34,7,2,57,6,0,34,5,1,4,62,0,2,37,1,57,6,0,34,5,1,57,6,0,34,5,1,0,66,0,0,38,1,0,66,0,0,38,1,23,41,0,12,29,1,57,6,0,34,5,1,33,9,24,23,8,13
2017-07-08T23:59:59Z,38,66,40,22,66,38,37,20,25,13,0,0,0,0,0,0,0,66,0,38,1,65,1,37,0,0,0,0,0,0,0,0,35,9,19,22,8,11,37,28,0,23,15,1,57,6,0,34,5,1,37,28,0,23,15,1,57,6,0,34,5,1,57,8,0,34,7,1,57,6,0,34,5,1,4,62,0,2,37,1,57,6,0,34,5,1,57,6,0,34,5,1,0,66,0,0,38,1,0,66,0,0,38,1,23,41,0,12,29,1,57,6,0,34,5,1,33,9,24,23,8,13
2017-07-09T23:59:59Z,38,66,40,22,66,38,39,21,25,13,0,0,0,0,0,0,0,66,0,38,1,65,1,37,0,0,0,0,0,0,0,0,35,9,19,22,8,11,37,28,0,23,15,1,57,6,0,34,5,1,37,28,0,23,15,1,57,6,0,34,5,1,57,8,0,34,7,1,57,6,0,34,5,1,4,62,0,2,37,1,57,6,0,34,5,1,57,6,0,34,5,1,0,66,0,0,38,1,0,66,0,0,38,1,23,41,0,12,29,1,57,6,0,34,5,1,32,10,24,22,9,13
2017-07-10T23:59:56Z,38,66,40,22,66,38,38,21,25,13,0,0,0,0,0,0,0,66,0,38,1,65,1,37,0,0,0,0,0,0,0,0,35,9,19,22,8,11,37,28,0,23,15,1,57,6,0,34,5,1,37,28,0,23,15,1,57,6,0,34,5,1,57,8,0,34,7,1,57,6,0,34,5,1,4,62,0,2,37,1,57,6,0,34,5,1,57,6,0,34,5,1,0,66,0,0,38,1,0,66,0,0,38,1,23,41,0,12,29,1,57,6,0,34,5,1,33,9,24,23,8,13
2017-07-11T23:59:56Z,37,65,39,21,65,37,38,20,25,13,0,0,0,0,0,0,0,65,0,37,1,64,1,36,0,0,0,0,0,0,0,0,34,9,19,21,8,11,37,27,0,23,14,1,56,6,0,33,5,1,37,27,0,23,14,1,56,6,0,33,5,1,56,8,0,33,7,1,56,6,0,33,5,1,4,61,0,2,36,1,56,6,0,33,5,1,56,6,0,33,5,1,0,65,0,0,37,1,0,65,0,0,37,1,23,40,0,12,28,1,56,6,0,33,5,1,32,9,24,22,8,13
2017-07-12T23:59:58Z,37,65,39,21,65,37,36,19,25,13,0,0,0,0,0,0,0,65,0,37,1,64,1,36,0,0,0,0,0,0,0,0,34,9,19,21,8,11,37,27,0,23,14,1,56,6,0,33,5,1,37,27,0,23,14,1,56,6,0,33,5,1,56,8,0,33,7,1,56,6,0,33,5,1,4,61,0,2,36,1,56,6,0,33,5,1,56,6,0,33,5,1,0,65,0,0,37,1,0,65,0,0,37,1,23,40,0,12,28,1,56,6,0,33,5,1,32,9,24,22,8,13
2017-07-13T23:59:58Z,37,65,39,21,65,37,37,20,25,13,0,0,0,0,0,0,0,65,0,37,1,64,1,36,0,0,0,0,0,0,0,0,34,9,19,21,8,11,37,27,0,23,14,1,56,6,0,33,5,1,37,27,0,23,14,1,56,6,0,33,5,1,56,8,0,33,7,1,56,6,0,33,5,1,4,61,0,2,36,1,56,6,0,33,5,1,56,6,0,33,5,1,0,65,0,0,37,1,0,65,0,0,37,1,23,40,0,12,28,1,56,6,0,33,5,1,32,9,24,22,8,13
2017-07-14T23:59:58Z,37,65,39,21,65,37,38,20,25,13,0,0,0,0,0,0,0,65,0,37,1,64,1,36,0,0,0,0,0,0,0,0,34,9,19,21,8,11,37,27,0,23,14,1,56,6,0,33,5,1,37,27,0,23,14,1,56,6,0,33,5,1,56,8,0,33,7,1,56,6,0,33,5,1,4,61,0,2,36,1,56,6,0,33,5,1,56,6,0,33,5,1,0,65,0,0,37,1,0,65,0,0,37,1,23,40,0,12,28,1,56,6,0,33,5,1,32,9,24,22,8,13
2017-07-15T23:59:57Z,37,65,39,21,65,37,36,19,25,13,0,0,0,0,0,0,0,65,0,37,1,64,1,36,0,0,0,0,0,0,0,0,34,9,19,21,8,11,37,27,0,23,14,1,56,6,0,33,5,1,37,27,0,23,14,1,56,6,0,33,5,1,56,8,0,33,7,1,56,6,0,33,5,1,4,61,0,2,36,1,56,6,0,33,5,1,56,6,0,33,5,1,0,65,0,0,37,1,0,65,0,0,37,1,23,40,0,12,28,1,56,6,0,33,5,1,32,9,24,22,8,13
2017-07-16T23:59:57Z,38,67,40,21,67,38,38,20,25,13,0,0,0,0,0,0,0,67,0,38,1,66,1,37,0,0,0,0,0,0,0,0,36,9,19,22,8,11,39,27,0,24,14,1,58,6,0,34,5,1,39,27,0,24,14,1,58,6,0,34,5,1,58,8,0,34,7,1,58,6,0,34,5,1,4,63,0,2,37,1,58,6,0,34,5,1,58,6,0,34,5,1,0,67,0,0,38,1,0,67,0,0,38,1,23,42,0,12,29,1,58,6,0,34,5,1,34,9,24,23,8,13
2017-07-17T23:59:58Z,38,66,39,21,66,38,38,20,25,13,0,0,0,0,0,0,0,66,0,38,1,65,1,37,0,0,0,0,0,0,0,0,35,9,19,22,8,11,38,27,0,24,14,1,57,6,0,34,5,1,38,27,0,24,14,1,57,6,0,34,5,1,57,8,0,34,7,1,57,6,0,34,5,1,4,62,0,2,37,1,57,6,0,34,5,1,57,6,0,34,5,1,0,66,0,0,38,1,0,66,0,0,38,1,23,41,0,12,29,1,57,6,0,34,5,1,33,9,24,23,8,13
2017-07-18T23:59:57Z,38,66,39,21,66,38,38,20,25,13,0,0,0,0,0,0,0,66,0,38,1,65,1,37,0,0,0,0,0,0,0,0,35,9,19,22,8,11,38,27,0,24,14,1,57,6,0,34,5,1,38,27,0,24,14,1,57,6,0,34,5,1,57,8,0,34,7,1,57,6,0,34,5,1,4,62,0,2,37,1,57,6,0,34,5,1,57,6,0,34,5,1,0,66,0,0,38,1,0,66,0,0,38,1,23,41,0,12,29,1,57,6,0,34,5,1,33,9,24,23,8,13
2017-07-19T23:59:58Z,38,66,39,21,66,38,37,20,25,13,0,0,0,0,0,0,0,66,0,38,1,65,1,37,0,0,0,0,0,0,0,0,35,9,19,22,8,11,38,27,0,24,14,1,57,6,0,34,5,1,38,27,0,24,14,1,57,6,0,34,5,1,57,8,0,34,7,1,57,6,0,34,5,1,4,62,0,2,37,1,57,6,0,34,5,1,57,6,0,34,5,1,0,66,0,0,38,1,0,66,0,0,38,1,23,41,0,12,29,1,57,6,0,34,5,1,33,9,24,23,8,13
2017-07-20T23:59:56Z,38,66,39,21,66,38,37,20,25,13,0,0,0,0,0,0,0,66,0,38,1,65,1,37,0,0,0,0,0,0,0,0,35,9,19,22,8,11,38,27,0,24,14,1,57,6,0,34,5,1,38,27,0,24,14,1,57,6,0,34,5,1,57,8,0,34,7,1,57,6,0,34,5,1,4,62,0,2,37,1,57,6,0,34,5,1,57,6,0,34,5,1,0,66,0,0,38,1,0,66,0,0,38,1,23,41,0,12,29,1,57,6,0,34,5,1,33,9,24,23,8,13
2017-07-21T23:59:57Z,39,66,39,22,66,39,37,21,24,13,0,0,0,0,0,0,0,66,0,39,1,65,1,38,0,0,0,0,0,0,0,0,35,10,18,22,9,11,38,27,0,24,15,1,56,7,0,34,6,1,38,27,0,24,15,1,56,7,0,34,6,1,56,9,0,34,8,1,56,7,0,34,6,1,4,61,1,2,38,2,56,7,0,34,6,1,56,7,0,34,6,1,0,66,0,0,39,2,0,66,0,0,39,1,22,42,0,12,30,1,56,7,0,34,6,1,33,10,23,23,9,13
2017-07-22T23:59:57Z,39,67,40,22,67,39,38,21,25,13,0,0,0,0,0,0,0,67,0,39,1,66,1,38,0,0,0,0,0,0,0,0,35,10,19,22,9,11,38,28,0,24,15,1,57,7,0,34,6,1,38,28,0,24,15,1,57,7,0,34,6,1,57,9,0,34,8,1,57,7,0,34,6,1,4,63,0,2,38,1,57,7,0,34,6,1,57,7,0,34,6,1,0,67,0,0,39,1,0,67,0,0,39,1,23,42,0,12,30,1,57,7,0,34,6,1,33,10,24,23,9,13
2017-07-23T23:59:59Z,39,67,40,22,67,39,39,21,25,13,0,0,0,0,0,0,0,67,0,39,1,66,1,38,0,0,0,0,0,0,0,0,35,10,19,22,9,11,38,28,0,24,15,1,57,7,0,34,6,1,38,28,0,24,15,1,57,7,0,34,6,1,57,9,0,34,8,1,57,7,0,34,6,1,4,63,0,2,38,1,57,7,0,34,6,1,57,7,0,34,6,1,0,67,0,0,39,1,0,67,0,0,39,1,23,42,0,12,30,1,57,7,0,34,6,1,33,10,24,23,9,13
2017-07-24T23:59:59Z,39,67,40,22,67,39,38,21,25,13,0,0,0,0,0,0,0,67,0,39,1,66,1,38,0,0,0,0,0,0,0,0,35,10,19,22,9,11,38,28,0,24,15,1,57,7,0,34,6,1,38,28,0,24,15,1,57,7,0,34,6,1,57,9,0,34,8,1,57,7,0,34,6,1,4,63,0,2,38,1,57,7,0,34,6,1,57,7,0,34,6,1,0,67,0,0,39,1,0,67,0,0,39,1,23,42,0,12,30,1,57,7,0,34,6,1,33,10,24,23,9,13
2017-07-25T23:59:57Z,39,67,40,22,67,39,38,21,25,13,0,0,0,0,0,0,0,67,0,39,1,66,1,38,0,0,0,0,0,0,0,0,35,10,19,22,9,11,38,28,0,24,15,1,57,7,0,34,6,1,38,28,0,24,15,1,57,7,0,34,6,1,57,9,0,34,8,1,57,7,0,34,6,1,4,63,0,2,38,1,57,7,0,34,6,1,57,7,0,34,6,1,0,67,0,0,39,1,0,67,0,0,39,1,23,42,0,12,30,1,57,7,0,34,6,1,33,10,24,23,9,13
2017-07-26T23:59:59Z,39,67,40,22,67,39,38,21,25,13,0,0,0,0,0,0,0,67,0,39,1,66,1,38,0,0,0,0,0,0,0,0,35,10,19,22,9,11,38,28,0,24,15,1,57,7,0,34,6,1,38,28,0,24,15,1,57,7,0,34,6,1,57,9,0,34,8,1,57,7,0,34,6,1,4,63,0,2,38,1,57,7,0,34,6,1,57,7,0,34,6,1,0,67,0,0,39,1,0,67,0,0,39,1,23,42,0,12,30,1,57,7,0,34,6,1,33,10,24,23,9,13
2017-07-27T23:59:58Z,39,67,40,22,67,39,37,20,25,13,0,0,0,0,0,0,0,67,0,39,1,66,1,38,0,0,0,0,0,0,0,0,35,10,19,22,9,11,38,28,0,24,15,1,57,7,0,34,6,1,38,28,0,24,15,1,57,7,0,34,6,1,57,9,0,34,8,1,57,7,0,34,6,1,4,63,0,2,38,1,57,7,0,34,6,1,57,7,0,34,6,1,0,67,0,0,39,1,0,67,0,0,39,1,23,42,0,12,30,1,57,7,0,34,6,1,33,10,24,23,9,13
2017-07-28T23:59:59Z,39,67,40,22,67,39,38,21,25,13,0,0,0,0,0,0,0,67,0,39,1,66,1,38,0,0,0,0,0,0,0,0,35,10,19,22,9,11,38,28,0,24,15,1,57,7,0,34,6,1,38,28,0,24,15,1,57,7,0,34,6,1,57,9,0,34,8,1,57,7,0,34,6,1,4,63,0,2,38,1,57,7,0,34,6,1,57,7,0,34,6,1,0,67,0,0,39,1,0,67,0,0,39,1,23,42,0,12,30,1,57,7,0,34,6,1,33,10,24,23,9,13
2017-07-29T23:59:58Z,39,67,40,22,66,39,38,21,25,13,0,0,0,0,0,0,0,67,0,39,1,66,1,38,0,0,0,0,0,0,0,0,35,10,19,22,9,11,38,28,0,24,15,1,57,7,0,34,6,1,38,28,0,24,15,1,57,7,0,34,6,1,57,9,0,34,8,1,57,7,0,34,6,1,4,63,0,2,38,1,57,7,0,34,6,1,57,7,0,34,6,1,0,67,0,0,39,1,0,67,0,0,39,1,23,42,0,12,30,1,56,7,1,34,6,2,33,10,24,23,9,13
2017-07-30T23:59:58Z,39,67,40,22,67,39,38,21,25,13,0,0,0,0,0,0,0,67,0,39,1,66,1,38,0,0,0,0,0,0,0,0,35,10,19,22,9,11,38,28,0,24,15,1,57,7,0,34,6,1,38,28,0,24,15,1,56,7,1,34,6,2,57,9,0,34,8,1,57,7,0,34,6,1,4,63,0,2,38,1,57,7,0,34,6,1,57,7,0,34,6,1,0,67,0,0,39,1,0,67,0,0,39,1,23,42,0,12,30,1,57,7,0,34,6,1,33,10,24,23,9,13
2017-07-31T23:59:56Z,39,67,40,22,67,39,38,21,25,13,0,0,0,0,0,0,0,67,0,39,1,66,1,38,0,0,0,0,0,0,0,0,35,10,19,22,9,11,38,28,0,24,15,1,57,7,0,34,6,1,38,28,0,24,15,1,57,7,0,34,6,1,57,9,0,34,8,1,57,7,0,34,6,1,4,63,0,2,38,1,57,7,0,34,6,1,57,7,0,34,6,1,0,67,0,0,39,1,0,67,0,0,39,1,23,42,0,12,30,1,57,7,0,34,6,1,33,10,24,23,9,13
2017-08-01T23:59:57Z,39,67,40,22,67,39,37,20,25,13,0,0,0,0,0,0,0,67,0,39,1,66,1,38,0,0,0,0,0,0,0,0,35,10,19,22,9,11,38,28,0,24,15,1,57,7,0,34,6,1,38,28,0,24,15,1,57,7,0,34,6,1,57,9,0,34,8,1,57,7,0,34,6,1,4,63,0,2,38,1,57,7,0,34,6,1,57,7,0,34,6,1,0,67,0,0,39,1,0,67,0,0,39,1,23,42,0,12,30,1,57,7,0,34,6,1,33,10,24,23,9,13
2017-08-02T23:59:57Z,39,67,40,22,67,39,37,20,24,13,0,0,0,0,0,0,0,67,0,39,1,66,1,38,0,0,0,0,0,0,0,0,35,10,19,22,9,11,38,28,0,24,15,1,57,7,0,34,6,1,38,28,0,24,15,1,57,7,0,34,6,1,57,9,0,34,8,1,57,7,0,34,6,1,4,63,0,2,38,1,57,7,0,34,6,1,57,7,0,34,6,1,0,67,0,0,39,1,0,67,0,0,39,1,23,42,0,12,30,1,57,7,0,34,6,1,33,10,24,23,9,13
2017-08-03T23:59:57Z,39,67,40,22,67,39,38,21,25,13,0,0,0,0,0,0,0,67,0,39,1,66,1,38,0,0,0,0,0,0,0,0,35,10,19,22,9,11,38,28,0,24,15,1,57,7,0,34,6,1,38,28,0,24,15,1,57,7,0,34,6,1,57,9,0,34,8,1,57,7,0,34,6,1,4,63,0,2,38,1,57,7,0,34,6,1,57,7,0,34,6,1,0,67,0,0,39,1,0,67,0,0,39,1,23,42,0,12,30,1,57,7,0,34,6,1,33,10,24,23,9,13
2017-08-04T23:59:59Z,39,67,40,22,67,39,36,21,25,13,0,0,0,0,0,0,0,67,0,39,1,66,1,38,0,0,0,0,0,0,0,0,35,10,19,22,9,11,38,28,0,24,15,1,57,7,0,34,6,1,38,28,0,24,15,1,57,7,0,34,6,1,57,9,0,34,8,1,57,7,0,34,6,1,4,63,0,2,38,1,57,7,0,34,6,1,57,7,0,34,6,1,0,67,0,0,39,1,0,67,0,0,39,1,23,42,0,12,30,1,57,7,0,34,6,1,33,10,24,23,9,13
2017-08-05T23:59:57Z,39,67,40,22,67,39,37,20,25,13,0,0,0,0,0,0,0,67,0,39,1,66,1,38,0,0,0,0,0,0,0,0,34,11,19,22,10,11,38,28,0,24,15,1,57,7,0,34,6,1,38,28,0,24,15,1,57,7,0,34,6,1,57,9,0,34,8,1,57,7,0,34,6,1,4,63,0,2,38,1,57,7,0,34,6,1,57,7,0,34,6,1,0,67,0,0,39,1,0,67,0,0,39,1,23,42,0,12,30,1,57,7,0,34,6,1,33,10,24,23,9,13
2017-08-06T23:59:57Z,38,64,37,21,64,38,35,20,22,12,0,0,0,0,0,0,0,64,0,38,1,63,1,37,0,0,0,0,0,0,0,0,34,11,16,22,10,10,38,25,0,24,14,1,54,7,0,33,6,1,38,25,0,24,14,1,54,7,0,33,6,1,54,9,0,33,8,1,54,7,0,33,6,1,4,60,0,2,37,1,54,7,0,33,6,1,54,7,0,33,6,1,0,64,0,0,38,1,0,64,0,0,38,1,20,42,0,11,30,1,54,7,0,33,6,1,33,10,21,23,9,12
2017-08-07T23:59:57Z,38,64,37,21,64,38,36,20,22,12,0,0,0,0,0,0,0,64,0,38,1,63,1,37,0,0,0,0,0,0,0,0,34,11,16,22,10,10,38,25,0,24,14,1,54,7,0,33,6,1,38,25,0,24,14,1,54,7,0,33,6,1,54,9,0,33,8,1,54,7,0,33,6,1,4,60,0,2,37,1,54,7,0,33,6,1,54,7,0,33,6,1,0,64,0,0,38,1,0,64,0,0,38,1,20,42,0,11,30,1,46,16,0,29,11,1,33,10,21,23,9,12
2017-08-08T23:59:57Z,38,64,37,21,64,38,35,20,22,12,0,0,0,0,0,0,0,64,0,38,1,63,1,37,0,0,0,0,0,0,0,0,34,11,16,22,10,10,38,25,0,24,14,1,54,7,0,33,6,1,38,25,0,24,14,1,54,7,0,33,6,1,54,9,0,33,8,1,54,7,0,33,6,1,4,60,0,2,37,1,54,7,0,33,6,1,54,7,0,33,6,1,0,64,0,0,38,1,0,64,0,0,38,1,20,42,0,11,30,1,47,15,0,30,11,1,33,10,21,23,9,12
2017-08-09T23:59:57Z,38,64,37,21,64,38,35,20,22,12,0,0,0,0,0,0,0,64,0,38,1,63,1,37,0,0,0,0,0,0,0,0,34,11,16,22,10,10,38,25,0,24,14,1,54,7,0,33,6,1,38,25,0,24,14,1,54,7,0,33,6,1,54,9,0,33,8,1,54,7,0,33,6,1,4,60,0,2,37,1,54,7,0,33,6,1,54,7,0,33,6,1,0,64,0,0,38,1,0,64,0,0,38,1,20,42,0,11,30,1,51,11,0,32,8,1,33,10,21,23,9,12
2017-08-10T23:59:57Z,38,64,37,21,64,38,36,20,22,12,0,0,0,0,0,0,0,64,0,38,1,63,1,37,0,0,0,0,0,0,0,0,34,11,16,22,10,10,38,25,0,24,14,1,54,7,0,33,6,1,38,25,0,24,14,1,54,7,0,33,6,1,54,9,0,33,8,1,54,7,0,33,6,1,4,60,0,2,37,1,54,7,0,33,6,1,54,7,0,33,6,1,0,64,0,0,38,1,0,64,0,0,38,1,20,42,0,11,30,1,48,14,0,31,11,1,33,10,21,23,9,12
2017-08-11T23:59:57Z,38,64,37,21,64,38,35,20,22,12,0,0,0,0,0,0,0,64,0,38,1,63,1,37,0,0,0,0,0,0,0,0,34,11,16,22,10,10,38,25,0,24,14,1,54,7,0,33,6,1,38,25,0,24,14,1,54,7,0,33,6,1,54,9,0,33,8,1,54,7,0,33,6,1,4,60,0,2,37,1,54,7,0,33,6,1,54,7,0,33,6,1,0,64,0,0,38,1,0,64,0,0,38,1,20,42,0,11,30,1,51,11,0,32,10,1,33,10,21,23,9,12
2017-08-12T23:59:59Z,38,64,37,21,64,38,36,20,23,13,0,0,0,0,0,0,0,64,0,38,1,63,1,37,0,0,0,0,0,0,0,0,34,11,16,22,10,10,38,25,0,24,14,1,54,7,0,33,6,1,38,25,0,24,14,1,54,7,0,33,6,1,54,9,0,33,8,1,54,7,0,33,6,1,4,60,0,2,37,1,54,7,0,33,6,1,54,7,0,33,6,1,0,64,0,0,38,1,0,64,0,0,38,1,20,42,0,11,30,1,48,14,0,30,9,1,33,10,21,23,9,12
2017-08-13T23:59:58Z,37,62,35,20,62,37,32,19,20,11,0,0,0,0,0,0,0,62,0,37,1,61,1,36,0,0,0,0,0,0,0,0,34,11,14,22,10,9,38,23,0,24,13,1,52,7,0,32,6,1,38,23,0,24,13,1,52,7,0,32,6,1,52,9,0,32,8,1,52,7,0,32,6,1,4,58,0,2,36,1,52,7,0,32,6,1,52,7,0,32,6,1,0,62,0,0,37,1,0,62,0,0,37,1,18,42,0,10,30,1,49,11,0,31,9,1,33,10,19,23,9,11
2017-08-14T23:59:58Z,37,62,35,20,62,37,33,19,20,11,0,0,0,0,0,0,0,62,0,37,1,61,1,36,0,0,0,0,0,0,0,0,34,11,14,22,10,9,38,23,0,24,13,1,52,7,0,32,6,1,38,23,0,24,13,1,52,7,0,32,6,1,52,9,0,32,8,1,52,7,0,32,6,1,4,58,0,2,36,1,52,7,0,32,6,1,52,7,0,32,6,1,0,62,0,0,37,1,0,62,0,0,37,1,18,42,0,10,30,1,49,11,0,31,10,1,33,10,19,23,9,11
2017-08-15T23:59:59Z,37,62,35,20,62,37,33,19,20,11,0,0,0,0,0,0,0,62,0,37,1,61,1,36,0,0,0,0,0,0,0,0,34,11,14,22,10,9,38,23,0,24,13,1,52,7,0,32,6,1,38,23,0,24,13,1,52,7,0,32,6,1,52,9,0,32,8,1,52,7,0,32,6,1,4,58,0,2,36,1,52,7,0,32,6,1,52,7,0,32,6,1,0,62,0,0,37,1,0,62,0,0,37,1,18,42,0,10,30,1,45,15,0,29,11,1,33,10,19,23,9,11
2017-08-16T23:59:59Z,36,60,33,19,60,36,30,17,20,11,0,0,0,0,0,0,0,60,0,36,1,59,1,35,0,0,0,0,0,0,0,0,32,11,14,21,10,9,36,23,0,23,13,1,50,7,0,31,6,1,36,23,0,23,13,1,50,7,0,31,6,1,50,9,0,31,8,1,50,7,0,31,6,1,4,56,0,2,35,1,50,7,0,31,6,1,50,7,0,31,6,1,0,60,0,0,36,1,0,60,0,0,36,1,18,40,0,10,29,1,49,9,0,30,8,1,31,10,19,22,9,11
2017-08-17T23:59:58Z,37,63,35,20,63,37,34,19,21,12,0,0,0,0,0,0,0,63,0,37,1,62,1,36,0,0,0,0,0,0,0,0,33,12,15,22,11,10,37,25,0,24,14,1,52,8,0,32,7,1,37,25,0,24,14,1,52,8,0,32,7,1,52,10,0,32,9,1,52,8,0,32,7,1,4,59,0,2,36,1,52,8,0,32,7,1,52,8,0,32,7,1,0,63,0,0,37,1,0,63,0,0,37,1,19,42,0,11,30,1,51,10,0,31,9,1,32,10,21,23,9,12
2017-08-18T23:59:59Z,38,65,37,21,65,38,35,20,21,12,0,0,0,0,0,0,1,64,1,38,1,64,1,37,0,0,0,0,0,0,0,0,35,12,15,23,11,10,39,25,0,25,14,1,54,8,0,33,7,1,39,25,0,25,14,1,54,8,0,33,7,1,54,10,0,33,9,1,54,8,0,33,7,1,4,61,0,2,37,1,54,8,0,33,7,1,54,8,0,33,7,1,0,65,0,0,38,1,0,65,0,0,38,1,19,44,0,11,31,1,53,10,0,32,9,1,34,10,21,24,9,12
2017-08-19T23:59:57Z,38,65,37,21,65,38,36,20,21,12,0,0,0,0,0,0,0,65,0,38,1,64,1,37,0,0,0,0,0,0,0,0,35,12,15,23,11,10,39,25,0,25,14,1,54,8,0,33,7,1,39,25,0,25,14,1,54,8,0,33,7,1,54,10,0,33,9,1,54,8,0,33,7,1,4,61,0,2,37,1,54,8,0,33,7,1,54,8,0,33,7,1,0,65,0,0,38,1,0,65,0,0,38,1,19,44,0,11,31,1,53,10,0,32,9,1,34,10,21,24,9,12
2017-08-20T23:59:58Z,38,65,37,21,65,38,35,20,21,12,0,0,0,0,0,0,0,65,0,38,1,64,1,37,0,0,0,0,0,0,0,0,35,12,15,23,11,10,39,25,0,25,14,1,54,8,0,33,7,1,39,25,0,25,14,1,54,8,0,33,7,1,54,10,0,33,9,1,54,8,0,33,7,1,4,61,0,2,37,1,54,8,0,33,7,1,54,8,0,33,7,1,0,65,0,0,38,1,0,65,0,0,38,1,19,44,0,11,31,1,53,10,0,32,9,1,34,10,21,24,9,12
2017-08-21T23:59:59Z,37,62,36,21,61,36,33,19,21,12,0,0,0,0,0,0,0,62,0,37,1,61,1,36,0,0,0,0,0,0,0,0,33,11,15,22,10,10,36,25,0,24,14,1,51,8,0,32,7,1,36,25,0,24,14,1,51,8,0,32,7,1,51,10,0,32,9,1,51,8,0,32,7,1,4,58,0,2,36,1,51,8,0,32,7,1,51,8,0,32,7,1,0,62,0,0,37,1,0,62,0,0,37,1,19,41,0,11,30,1,50,10,0,31,9,1,31,10,21,23,9,12
2017-08-22T23:59:59Z,38,65,37,21,65,38,35,20,21,12,0,0,0,0,0,0,0,65,0,38,1,64,1,37,0,0,0,0,0,0,0,0,35,12,15,23,11,10,39,24,1,25,14,2,54,8,0,33,7,1,39,25,0,25,14,1,54,8,0,33,7,1,54,10,0,33,9,1,54,8,0,33,7,1,4,61,0,2,37,1,54,8,0,33,7,1,54,8,0,33,7,1,0,65,0,0,38,1,0,65,0,0,38,1,19,44,0,11,31,1,53,10,0,32,9,1,34,10,21,24,9,12
2017-08-23T23:59:56Z,38,66,38,21,66,38,36,20,21,12,0,0,0,0,0,0,0,66,0,38,1,65,1,37,0,0,0,0,0,0,0,0,35,13,15,23,11,10,40,25,0,25,14,1,55,8,0,33,7,1,40,25,0,25,14,1,55,8,0,33,7,1,55,10,0,33,9,1,55,8,0,33,7,1,4,62,0,2,37,1,55,8,0,33,7,1,55,8,0,33,7,1,0,66,0,0,38,1,0,66,0,0,38,1,19,45,0,11,31,1,54,10,0,32,9,1,35,10,21,24,9,12
2017-08-24T23:59:58Z,38,65,37,21,65,38,34,19,21,12,0,0,0,0,0,0,0,65,0,38,1,64,1,37,0,0,0,0,0,0,0,0,35,12,15,23,11,10,39,25,0,25,14,1,54,8,0,33,7,1,39,25,0,25,14,1,54,8,0,33,7,1,54,10,0,33,9,1,54,8,0,33,7,1,4,61,0,2,37,1,54,8,0,33,7,1,54,8,0,33,7,1,0,65,0,0,38,1,0,65,0,0,38,1,19,44,0,11,31,1,53,10,0,32,9,1,34,10,21,24,9,12
2017-08-25T23:59:56Z,38,65,37,21,65,38,34,19,21,12,0,0,0,0,0,0,0,65,0,38,1,64,1,37,0,0,0,0,0,0,0,0,35,12,15,23,11,10,39,25,0,25,14,1,54,8,0,33,7,1,39,25,0,25,14,1,54,8,0,33,7,1,54,10,0,33,9,1,54,8,0,33,7,1,4,61,0,2,37,1,54,8,0,33,7,1,54,8,0,33,7,1,0,65,0,0,38,1,0,65,0,0,38,1,19,44,0,11,31,1,53,10,0,32,9,1,34,10,21,24,9,12